2023-116C (57536 NORAD) Tracking and Keplerian Element Data

This shows tracking and keplerian element data for the satellite.

Feedback or suggestion? Click here.




ElementValue
Catalog57536
Name2023-116C
Epoch Orbit279
Epoch Day239.10995707
Epoch Year2023
RAAN244.4392
Inclination97.1241
Eccentricity0.0041678
Argument of Perigee337.3307
Mean Anonmoly51.5343
Mean Motion15.3648558
Decay Rate0.00014125
L11 57536U 23116C 23239.10995707 .00014125 00000+0 38738-3 0 9990
L22 57536 97.1241 244.4392 0041678 337.3307 51.5343 15.36485580 2796



Live tracking and technical data element details for 2023-116C (NORAD 57536). 2023-116C can be tracked NOW for your location showing map with azimuth and elevation plus other details from your city location.







IsCatalogInMostPopularTable: catalog: 57536, numindb: 19
Update: records affected: 1



GetName: 57536 2023-116C

Hit Count: updated at: Mon, 04 Dec 2023 03:13:24 GMT